TimePDT,TemperatureF,Dew PointF,Humidity,Sea Level PressureIn,VisibilityMPH,Wind Direction,Wind SpeedMPH,Gust SpeedMPH,PrecipitationIn,Events,Conditions,WindDirDegrees,DateUTC
12:53 AM,35.1,24.1,64,30.22,10.0,West,6.9,-,N/A,,Clear,260,2012-10-07 07:53:00
1:53 AM,35.1,26.1,70,30.22,10.0,WNW,6.9,-,N/A,,Clear,290,2012-10-07 08:53:00
2:53 AM,35.1,25.0,67,30.22,10.0,West,10.4,-,N/A,,Clear,260,2012-10-07 09:53:00
3:53 AM,33.1,25.0,72,30.21,10.0,West,9.2,-,N/A,,Clear,270,2012-10-07 10:53:00
4:53 AM,30.9,24.1,76,30.21,10.0,West,6.9,-,N/A,,Clear,280,2012-10-07 11:53:00
5:53 AM,28.9,23.0,78,30.21,10.0,SW,26.5,-,N/A,,Clear,220,2012-10-07 12:53:00
6:53 AM,28.9,21.9,75,30.21,10.0,West,9.2,-,N/A,,Clear,280,2012-10-07 13:53:00
7:53 AM,34.0,24.1,67,30.21,10.0,West,9.2,-,N/A,,Clear,260,2012-10-07 14:53:00
8:53 AM,44.1,25.0,47,30.20,10.0,WSW,5.8,-,N/A,,Clear,250,2012-10-07 15:53:00
9:53 AM,51.1,26.1,38,30.19,10.0,West,4.6,-,N/A,,Clear,270,2012-10-07 16:53:00
10:53 AM,57.0,25.0,29,30.17,10.0,Variable,3.5,-,N/A,,Clear,0,2012-10-07 17:53:00
11:53 AM,63.0,25.0,24,30.14,10.0,NNE,3.5,-,N/A,,Clear,30,2012-10-07 18:53:00
12:53 PM,66.9,26.1,21,30.12,10.0,Calm,Calm,-,N/A,,Clear,0,2012-10-07 19:53:00
1:53 PM,70.0,25.0,18,30.08,10.0,East,4.6,-,N/A,,Clear,80,2012-10-07 20:53:00
2:53 PM,71.1,21.0,15,30.05,10.0,SE,3.5,-,N/A,,Clear,140,2012-10-07 21:53:00
3:53 PM,71.1,23.0,16,30.04,10.0,ESE,3.5,-,N/A,,Clear,120,2012-10-07 22:53:00
4:53 PM,71.1,24.1,17,30.02,10.0,Calm,Calm,-,N/A,,Clear,0,2012-10-07 23:53:00
5:53 PM,64.9,32.0,29,30.01,10.0,SSE,3.5,-,N/A,,Clear,160,2012-10-08 00:53:00
6:53 PM,53.1,28.0,38,30.00,10.0,WSW,3.5,-,N/A,,Clear,240,2012-10-08 01:53:00
7:53 PM,50.0,35.1,57,30.00,10.0,WNW,6.9,-,N/A,,Clear,300,2012-10-08 02:53:00
8:53 PM,44.1,28.9,55,30.00,10.0,West,6.9,-,N/A,,Clear,280,2012-10-08 03:53:00
9:53 PM,39.9,28.9,65,30.00,10.0,West,5.8,-,N/A,,Clear,260,2012-10-08 04:53:00
10:53 PM,39.0,28.9,67,30.00,10.0,WNW,4.6,-,N/A,,Clear,290,2012-10-08 05:53:00
11:53 PM,39.0,28.9,67,29.99,10.0,North,-9999.0,-,N/A,,Clear,0,2012-10-08 06:53:00